[[{"header":{"parameterUnit":"m.s-1","parameterCategory":1,"la1":30.2991,"la2":30.254,"lo1":-89.0895,"lo2":-89.0444,"dy":0.0017,"dx":0.0017,"nx":28,"ny":28,"refTime":"2023-03-30T15:00:00:Z","depth":0,"parameterNumber":2,"parameterNumberName":"U-component_of_WINDS"},"data":[0,0,0,0,0,0,0,0,0,0,0,0,0,0,0,0,0,0,0,0,0,0,0,0,0,0,0,0,0,0,0,0,0,0,0,0,0,0,0,0,0,0,0,0,0,0,0,0,0,0,0,0,0,0,0,0,0,0,-3.792,-3.7922,0,-3.8059,-3.8061,-3.8062,-3.8086,-3.8085,-3.8084,-3.8083,-3.8228,-3.8233,-3.8238,0,0,0,0,0,0,0,0,0,0,0,0,0,-3.7679,-3.7683,-3.792,-3.7922,-3.7924,-3.8059,-3.8061,-3.8063,-3.8086,-3.8085,-3.8083,-3.8082,-3.8226,-3.8232,-3.8238,0,0,0,0,0,0,0,0,0,0,0,0,0,-3.7797,-3.7685,-3.792,-3.7952,-3.7956,-3.8059,-3.8061,-3.8063,-3.8087,-3.8085,-3.8083,-3.8081,-3.8224,-3.8232,-3.8239,-3.8321,0,0,-3.8262,-3.8265,0,0,0,0,0,0,0,0,-3.7791,-3.7806,-3.7945,-3.795,-3.7954,-3.8053,-3.8029,-3.815,-3.8087,-3.8037,-3.8083,-3.8081,-3.8172,-3.8183,-3.8213,-3.8327,-3.8334,-3.8262,-3.8267,-3.827,-3.8272,0,0,0,0,0,0,0,-3.7782,-3.78,-3.7975,-3.7947,-3.7953,-3.796,-3.7975,-3.8052,-3.8113,-3.8041,-3.8043,-3.8059,-3.8174,-3.8206,-3.8217,-3.8336,-3.8262,-3.8269,-3.8273,-3.8276,-3.8525,-3.8527,0,0,0,0,0,0,-3.7768,-3.7793,-3.7971,-3.7979,-3.7866,-3.7966,-3.7983,-3.8024,-3.8112,-3.8124,-3.8061,-3.806,-3.8194,-3.8208,-3.8222,-3.8323,-3.827,-3.8277,-3.8281,-3.8523,-3.8525,-3.8528,0,0,0,0,0,0,-3.7763,-3.7784,-3.7965,-3.7887,-3.7911,-3.7972,-3.8018,-3.8027,-3.8059,-3.8126,-3.8138,-3.8082,-3.8193,-3.8212,-3.8296,-3.8329,-3.8281,-3.8287,-3.852,-3.8524,-3.8527,-3.8526,0,0,0,0,0,0,-3.7756,-3.7782,-3.7812,-3.7887,-3.7915,-3.8035,-3.802,-3.8031,-3.8072,-3.8072,-3.815,-3.8161,-3.8193,-3.8285,-3.8303,-3.8338,-3.8293,-3.8518,-3.8522,-3.8526,-3.8523,-3.8529,-3.8533,0,0,0,0,0,-3.7747,-3.7807,-3.7814,-3.7835,-3.7954,-3.8037,-3.8053,-3.8088,-3.8074,-3.8106,-3.815,-3.8158,-3.8322,-3.8293,-3.8314,-3.8352,-3.8516,-3.8521,-3.8525,-3.8521,-3.8528,-3.8533,0,0,0,0,0,0,-3.7735,-3.7817,-3.7825,-3.7911,-3.7967,-3.8041,-3.8082,-3.8094,-3.8155,-3.8153,-3.8195,-3.8213,-3.8295,-3.8332,-3.8298,-3.8436,-3.8418,-3.8427,-3.8408,-3.8415,-3.842,-3.8408,-3.8299,0,0,0,0,0,-3.7742,-3.7801,-3.7871,-3.794,-3.7968,-3.802,-3.8058,-3.808,-3.814,-3.8163,-3.8213,-3.8271,-3.8336,-3.8378,-3.8441,-3.853,-3.8547,-3.8566,-3.8571,-3.8575,-3.8582,-3.8632,-3.8641,-3.8543,-3.8543,-3.8543,0,0,-3.7757,-3.781,-3.7845,-3.7939,-3.7985,-3.8046,-3.804,-3.8105,-3.8151,-3.8174,-3.8255,-3.8294,-3.8363,-3.8449,-3.849,-3.8483,-3.8613,-3.8581,-3.8584,-3.8589,-3.8638,-3.8647,-3.8655,-3.8547,-3.8546,-3.8546,0,0,-3.7817,-3.7863,-3.7925,-3.7971,-3.804,-3.8075,-3.809,-3.8162,-3.8188,-3.8271,-3.829,-3.8347,-3.8457,-3.8505,-3.8544,-3.8623,-3.8633,-3.8643,-3.8668,-3.8716,-3.8724,-3.8731,-3.8759,-3.8768,-3.865,-3.865,-3.865,0,-3.7827,-3.7919,-3.7956,-3.802,-3.8061,-3.8084,-3.8148,-3.8192,-3.8278,-3.8307,-3.8298,-3.8437,-3.8485,-3.8583,-3.8602,-3.8634,-3.8653,-3.8633,-3.872,-3.8727,-3.8734,-3.8761,-3.8772,-3.8651,-3.8651,-3.8651,-3.865,0,-3.7929,-3.7993,-3.8035,-3.8117,-3.8163,-3.8227,-3.8274,-3.8317,-3.8337,-3.8373,-3.8458,-3.8516,-3.8591,-3.8617,-3.8637,-3.8718,-3.8712,-3.8711,-3.8694,-3.8744,-3.8769,-3.878,-3.8651,-3.8651,-3.8651,-3.8651,0,0,-3.7982,-3.8084,-3.8099,-3.8136,-3.8215,-3.8265,-3.8332,-3.8404,-3.844,-3.85,-3.8556,-3.865,-3.865,-3.8694,-3.872,-3.8763,-3.8821,-3.8757,-3.8759,-3.8766,-3.8915,-3.8913,-3.8924,-3.883,-3.8832,-3.8833,-3.8908,0,-3.805,-3.8166,-3.8201,-3.8299,-3.8359,-3.8383,-3.844,-3.8495,-3.8531,-3.8589,-3.8629,-3.8695,-3.869,-3.8717,-3.876,-3.8805,-3.8851,-3.88,-3.8883,-3.8885,-3.8863,-3.8938,-3.8937,-3.9005,-3.8919,-3.8921,-3.8922,0,-3.8143,-3.8203,-3.8307,-3.8378,-3.8404,-3.8455,-3.8525,-3.8579,-3.8643,-3.8667,-3.8716,-3.8739,-3.881,-3.8791,-3.8889,-3.8854,-3.889,-3.8918,-3.8921,-3.8929,-3.8905,-3.8947,-3.9028,-3.9037,-3.8938,-3.8937,-3.8936,0,-3.817,-3.8278,-3.8353,-3.8385,-3.847,-3.8505,-3.8543,-3.8605,-3.8646,-3.8709,-3.8736,-3.8807,-3.8845,-3.8899,-3.8941,-3.8923,-3.9036,-3.902,-3.9058,-3.9057,-3.9079,-3.9077,-3.9165,-3.9105,-3.9105,-3.9105,-3.9105,0,-3.8241,-3.8303,-3.8366,-3.8412,-3.8483,-3.8525,-3.8594,-3.8633,-3.8688,-3.8744,-3.877,-3.8822,-3.8874,-3.8933,-3.8967,-3.9043,-3.9061,-3.9082,-3.909,-3.9079,-3.9076,-3.9102,-3.9098,-3.9108,-3.9107,-3.9107,-3.9106,0,-3.8282,-3.8327,-3.8411,-3.8485,-3.8505,-3.8554,-3.8618,-3.8665,-3.8702,-3.8772,-3.8791,-3.8851,-3.8922,-3.8969,-3.9061,-3.9083,-3.9166,-3.9174,-3.9144,-3.9147,-3.9182,-3.9178,-3.9289,-3.9306,-3.9236,-3.9236,-3.9237,0,-3.8324,-3.8372,-3.8451,-3.8489,-3.8526,-3.8588,-3.863,-3.8674,-3.8717,-3.8794,-3.8832,-3.8905,-3.8965,-3.9078,-3.913,-3.92,-3.9209,-3.9243,-3.922,-3.9207,-3.9208,-3.9204,-3.9209,-3.9246,-3.9247,-3.9247,-3.9248,0,-3.8392,-3.8412,-3.8471,-3.8539,-3.8589,-3.8645,-3.8701,-3.8731,-3.8785,-3.8833,-3.8905,-3.8952,-3.9045,-3.9117,-3.9192,-3.9232,-3.9249,-3.9255,-3.9267,-3.9256,-3.9236,-3.9246,-3.9153,-3.9252,-3.9251,-3.9251,-3.9251,-3.9251,-3.8434,-3.8478,-3.854,-3.8606,-3.8652,-3.8704,-3.8751,-3.8795,-3.8856,-3.8933,-3.8956,-3.9032,-3.9096,-3.9199,-3.924,-3.9301,-3.9298,-3.9316,-3.932,-3.9323,-3.9323,-3.9227,-3.9315,-3.9315,-3.9315,-3.9315,-3.9315,0,-3.8503,-3.8544,-3.8604,-3.8681,-3.8733,-3.8744,-3.8807,-3.885,-3.8915,-3.8973,-3.9032,-3.9115,-3.9186,-3.9244,-3.9317,-3.9354,-3.9364,-3.9372,-3.9369,-3.9378,-3.9322,-3.9304,-3.9363,-3.9363,-3.9363,-3.9363,-3.9363,-3.9363,-3.8544,-3.8619,-3.8646,-3.8745,-3.8786,-3.8859,-3.8894,-3.8942,-3.8989,-3.908,-3.9138,-3.9175,-3.9234,-3.9311,-3.9377,-3.9392,-3.9418,-3.9424,-3.9441,-3.9387,-3.9382,-3.9377,-3.9359,-3.9429,-3.9429,-3.9491,-3.9492,-3.9492]},{"header":{"parameterUnit":"m.s-1","parameterCategory":1,"la1":30.2991,"la2":30.254,"lo1":-89.0895,"lo2":-89.0444,"dy":0.0017,"dx":0.0017,"nx":28,"ny":28,"refTime":"2023-03-30T15:00:00:Z","depth":0,"parameterNumber":3,"parameterNumberName":"V-component_of_WINDS"},"data":[0,0,0,0,0,0,0,0,0,0,0,0,0,0,0,0,0,0,0,0,0,0,0,0,0,0,0,0,0,0,0,0,0,0,0,0,0,0,0,0,0,0,0,0,0,0,0,0,0,0,0,0,0,0,0,0,0,0,4.4421,4.4422,0,4.4545,4.4546,4.4548,4.4536,4.4534,4.4532,4.4531,4.4652,4.4657,4.4662,0,0,0,0,0,0,0,0,0,0,0,0,0,4.4169,4.4174,4.4421,4.4422,4.4424,4.4545,4.4546,4.4548,4.4537,4.4534,4.4532,4.453,4.465,4.4656,4.4662,0,0,0,0,0,0,0,0,0,0,0,0,0,4.4284,4.4175,4.442,4.4433,4.4435,4.4544,4.4546,4.4548,4.4537,4.4534,4.4531,4.4529,4.4648,4.4655,4.4663,4.4766,0,0,4.4686,4.4689,0,0,0,0,0,0,0,0,4.4278,4.4293,4.4429,4.4432,4.4435,4.4522,4.4502,4.4621,4.4538,4.4498,4.4531,4.4527,4.4611,4.4621,4.465,4.4771,4.4777,4.4686,4.4691,4.4694,4.4696,0,0,0,0,0,0,0,4.427,4.4288,4.447,4.4431,4.4435,4.4431,4.4444,4.4525,4.4568,4.4501,4.4501,4.4516,4.4611,4.4643,4.4653,4.4778,4.4686,4.4693,4.4697,4.47,4.4991,4.4994,0,0,0,0,0,0,4.426,4.4281,4.4466,4.4473,4.4348,4.4437,4.4452,4.4497,4.4568,4.4576,4.4518,4.4515,4.4632,4.4644,4.4657,4.4783,4.4694,4.4701,4.4705,4.4988,4.4992,4.4995,0,0,0,0,0,0,4.4254,4.4276,4.4461,4.4377,4.4401,4.4445,4.4495,4.4501,4.4533,4.4581,4.4588,4.4543,4.463,4.4647,4.4739,4.4787,4.4704,4.4711,4.4984,4.4989,4.4993,4.5035,0,0,0,0,0,0,4.4247,4.4274,4.4315,4.4378,4.4405,4.4542,4.4498,4.4505,4.4546,4.4543,4.4606,4.4613,4.4629,4.4728,4.4747,4.4796,4.4717,4.498,4.4986,4.4992,4.5029,4.504,4.505,0,0,0,0,0,4.4238,4.432,4.4317,4.4339,4.4457,4.4545,4.456,4.4579,4.455,4.4591,4.4622,4.4611,4.4779,4.4738,4.4759,4.481,4.4977,4.4984,4.4991,4.5025,4.5038,4.505,0,0,0,0,0,0,4.4258,4.4329,4.4326,4.4431,4.4483,4.4543,4.4595,4.4592,4.4651,4.4645,4.4664,4.4678,4.4772,4.48,4.4753,4.4914,4.4874,4.4886,4.4892,4.4905,4.4915,4.4906,4.4723,0,0,0,0,0,4.4276,4.4343,4.44,4.4487,4.4513,4.455,4.4589,4.4599,4.4652,4.4673,4.4711,4.4761,4.4825,4.4867,4.4928,4.5034,4.5047,4.5079,4.509,4.5098,4.5108,4.5166,4.5181,4.5019,4.5019,4.5019,0,0,4.4311,4.4357,4.4398,4.4493,4.4534,4.4602,4.4568,4.4641,4.4691,4.4683,4.4774,4.4804,4.4861,4.4961,4.5006,4.4987,4.5155,4.5107,4.5113,4.5119,4.5175,4.519,4.5203,4.5024,4.5023,4.5022,0,0,4.441,4.4452,4.453,4.4573,4.4636,4.466,4.4679,4.4741,4.4761,4.4852,4.4848,4.4907,4.5017,4.5059,4.5094,4.5211,4.5203,4.523,4.5284,4.534,4.5353,4.5364,4.5405,4.542,4.524,4.524,4.524,0,4.4445,4.4549,4.457,4.4645,4.4686,4.4685,4.4763,4.4802,4.4882,4.491,4.4888,4.5027,4.5066,4.5175,4.5204,4.5233,4.5254,4.5223,4.535,4.5361,4.5372,4.5412,4.5427,4.5243,4.5243,4.5242,4.5242,0,4.4589,4.4662,4.4717,4.4796,4.4844,4.492,4.4951,4.4996,4.5003,4.5028,4.5122,4.5168,4.524,4.5266,4.5272,4.5377,4.5364,4.5346,4.5305,4.539,4.5428,4.5443,4.5247,4.5246,4.5245,4.5244,0,0,4.4703,4.4795,4.4815,4.4851,4.4922,4.4977,4.5053,4.5125,4.5164,4.5219,4.5282,4.5377,4.5361,4.5401,4.5412,4.5461,4.5551,4.5437,4.5439,4.5456,4.5669,4.5682,4.5699,4.5547,4.555,4.5552,4.5664,0,4.4809,4.4946,4.4967,4.5087,4.5154,4.5154,4.522,4.527,4.5296,4.5355,4.5384,4.5451,4.5425,4.5449,4.5499,4.553,4.5594,4.5522,4.5604,4.5607,4.559,4.5719,4.5733,4.5836,4.5679,4.5682,4.5683,0,4.4951,4.5013,4.5139,4.5202,4.5231,4.529,4.5359,4.5416,4.5472,4.5488,4.5534,4.5539,4.5616,4.5574,4.568,4.5631,4.5666,4.5686,4.5691,4.5698,4.565,4.573,4.587,4.5885,4.5707,4.5705,4.5703,0,4.5021,4.5136,4.5227,4.5258,4.5333,4.5375,4.5408,4.5462,4.5504,4.5563,4.5591,4.5657,4.5693,4.5744,4.5767,4.5734,4.5872,4.5831,4.5886,4.5885,4.5914,4.5912,4.6061,4.5938,4.5937,4.5937,4.5937,0,4.5137,4.5214,4.526,4.5315,4.5402,4.5426,4.551,4.5542,4.559,4.5651,4.5654,4.5711,4.5738,4.5798,4.5816,4.5901,4.5917,4.5931,4.5935,4.5931,4.5929,4.5954,4.5947,4.5941,4.594,4.594,4.5939,0,4.523,4.5263,4.5362,4.5427,4.5445,4.5506,4.556,4.5614,4.564,4.5717,4.5737,4.5778,4.585,4.5878,4.5964,4.5976,4.6075,4.6073,4.6056,4.6057,4.6111,4.6105,4.628,4.6304,4.6165,4.6167,4.6168,0,4.5301,4.5361,4.5433,4.5475,4.5511,4.5578,4.5622,4.5648,4.5693,4.5763,4.5808,4.588,4.5939,4.6052,4.6089,4.6155,4.6155,4.6212,4.6165,4.6159,4.6155,4.6151,4.6157,4.622,4.6221,4.6223,4.6223,0,4.5425,4.5439,4.5503,4.5574,4.5627,4.5684,4.5738,4.5772,4.5806,4.5856,4.5931,4.5977,4.6067,4.6138,4.6207,4.6238,4.6237,4.6238,4.6255,4.6251,4.6239,4.6246,4.608,4.6234,4.6233,4.6232,4.6232,4.6231,4.5509,4.5563,4.5622,4.5694,4.5739,4.579,4.5844,4.5879,4.5942,4.6019,4.6029,4.6109,4.6164,4.6257,4.6292,4.6353,4.6338,4.6361,4.6367,4.6373,4.6376,4.623,4.6366,4.6366,4.6365,4.6365,4.6365,0,4.5633,4.5672,4.5738,4.5815,4.5872,4.5868,4.5928,4.5975,4.6046,4.6099,4.6157,4.6243,4.6312,4.6355,4.6425,4.6466,4.6467,4.6483,4.648,4.6487,4.6386,4.6365,4.6481,4.6481,4.6481,4.6481,4.6481,4.6481,4.5704,4.5795,4.5816,4.5929,4.5966,4.6046,4.6081,4.6129,4.6171,4.6267,4.6326,4.6354,4.6403,4.6476,4.6539,4.655,4.6575,4.6593,4.6602,4.6506,4.6494,4.6483,4.6463,4.6598,4.6598,4.6698,4.6699,4.6699]}]]